Date,Time,Wetness (Wet Dry or Ice),Wind Speed (m/s),Temperature (C),Humidity (%),Pressure (mb),Radiation (W/m^2)
2020-09-22,05:15:00,DRY,0.90,16.60,33.0,778.00,1.3
2020-09-22,05:20:00,DRY,1.07,16.53,33.7,778.00,1.2
2020-09-22,05:25:00,DRY,1.15,16.45,33.5,777.50,1.0
2020-09-22,05:30:00,DRY,1.40,15.93,34.3,778.00,2.0
2020-09-22,05:35:00,DRY,1.80,15.40,35.5,778.00,1.2
2020-09-22,05:40:00,DRY,1.77,15.27,36.0,778.00,0.6
2020-09-22,05:45:00,DRY,2.05,15.55,38.5,778.00,0.2
2020-09-22,05:50:00,DRY,2.30,15.37,39.3,778.00,1.0
2020-09-22,05:55:00,DRY,1.80,15.35,40.0,778.00,0.1
2020-09-22,06:00:00,DRY,2.23,15.43,39.3,778.00,1.1
2020-09-22,06:05:00,DRY,2.15,15.50,38.0,778.00,1.2
2020-09-22,06:10:00,DRY,2.40,15.57,37.7,778.00,0.9
2020-09-22,06:15:00,DRY,2.35,15.65,38.0,778.00,1.5
2020-09-22,06:20:00,DRY,2.03,15.57,37.7,778.00,1.7
2020-09-22,06:25:00,DRY,2.70,15.75,36.0,778.00,0.9
2020-09-22,06:30:00,DRY,2.03,16.00,35.3,778.00,1.9
2020-09-22,06:35:00,DRY,1.85,15.85,37.5,778.00,1.4
2020-09-22,06:40:00,DRY,2.00,15.77,37.3,778.00,1.2
2020-09-22,06:45:00,DRY,1.65,15.80,36.5,778.00,1.3
2020-09-22,06:50:00,DRY,2.00,16.03,35.0,778.00,1.7
2020-09-22,06:55:00,DRY,2.05,16.25,34.0,778.00,2.3
2020-09-22,07:00:00,DRY,1.30,16.13,34.7,778.00,4.8
2020-09-22,07:05:00,DRY,1.10,15.85,36.0,778.00,4.5
2020-09-22,07:10:00,DRY,1.30,15.60,36.3,778.00,7.9
2020-09-22,07:15:00,DRY,1.30,15.60,37.0,778.00,13.5
2020-09-22,07:20:00,DRY,1.60,15.43,38.7,778.00,17.6
2020-09-22,07:25:00,DRY,1.60,15.50,38.5,778.00,24.4
2020-09-22,07:30:00,DRY,2.17,15.70,38.0,778.00,29.3
2020-09-22,07:35:00,DRY,2.25,15.65,38.0,778.00,35.4
2020-09-22,07:40:00,DRY,2.67,15.77,37.7,778.00,41.5
2020-09-22,07:45:00,DRY,2.70,15.75,37.0,778.00,44.8
2020-09-22,07:50:00,DRY,2.30,15.80,37.0,778.00,49.4
2020-09-22,07:55:00,DRY,2.70,15.80,37.0,778.00,58.0
2020-09-22,08:00:00,DRY,2.53,15.93,36.3,778.00,69.5
2020-09-22,08:05:00,DRY,2.25,16.00,36.0,778.00,79.1
2020-09-22,08:10:00,DRY,2.47,16.07,36.0,778.00,86.0
2020-09-22,08:15:00,DRY,2.20,16.10,36.0,778.00,91.4
2020-09-22,08:20:00,DRY,1.77,16.20,36.0,778.00,97.8
2020-09-22,08:25:00,DRY,1.80,16.25,36.0,778.00,99.8
2020-09-22,08:30:00,DRY,1.87,16.30,35.7,778.00,110.3
2020-09-22,08:35:00,DRY,1.80,16.30,36.0,778.00,111.3
2020-09-22,08:40:00,DRY,2.43,16.27,36.0,778.00,109.0
2020-09-22,08:45:00,DRY,2.10,16.20,36.0,778.00,117.8
2020-09-22,08:50:00,DRY,1.97,16.20,36.0,778.00,130.6
2020-09-22,08:55:00,DRY,2.50,16.25,36.0,778.00,144.9
2020-09-22,09:00:00,DRY,2.33,16.27,36.0,778.00,158.9
2020-09-22,09:05:00,DRY,2.90,16.30,36.0,778.50,164.3
2020-09-22,09:10:00,DRY,3.03,16.30,36.0,778.67,163.8
2020-09-22,09:15:00,DRY,1.90,16.30,36.0,779.00,171.6
2020-09-22,09:20:00,DRY,2.57,16.37,36.3,779.00,185.4
2020-09-22,09:25:00,DRY,2.35,16.50,36.0,779.00,188.5
2020-09-22,09:30:00,DRY,1.60,16.57,35.7,779.00,197.4
2020-09-22,09:35:00,DRY,1.65,16.45,36.0,779.00,185.3
2020-09-22,09:40:00,DRY,1.47,16.43,35.3,779.00,165.6
2020-09-22,09:45:00,DRY,1.00,16.55,35.0,779.00,165.3
2020-09-22,09:50:00,DRY,1.47,16.60,35.0,779.00,225.3
2020-09-22,09:55:00,DRY,0.40,16.70,36.0,779.00,238.6
2020-09-22,10:00:00,DRY,0.87,16.77,36.0,779.00,237.6
2020-09-22,10:05:00,DRY,0.80,16.85,37.5,779.00,251.7
2020-09-22,10:10:00,DRY,1.10,16.87,36.3,779.00,328.9
2020-09-22,10:15:00,DRY,0.60,16.80,37.0,779.00,515.9
2020-09-22,10:20:00,DRY,1.03,17.17,36.0,779.00,488.4
2020-09-22,10:25:00,DRY,1.45,17.50,35.0,779.00,394.4
2020-09-22,10:30:00,DRY,1.00,17.43,35.3,779.00,341.4
2020-09-22,10:35:00,DRY,1.90,17.05,35.5,779.00,375.1
2020-09-22,10:40:00,DRY,1.20,16.90,37.0,779.00,397.8
2020-09-22,10:45:00,DRY,1.20,16.95,38.0,779.00,367.0
2020-09-22,10:50:00,DRY,1.60,16.93,37.3,779.00,350.5
2020-09-22,10:55:00,DRY,2.10,16.95,39.5,779.00,306.4
2020-09-22,11:00:00,DRY,1.37,16.43,40.0,779.00,350.5
2020-09-22,11:05:00,DRY,1.15,16.45,40.5,779.00,457.9
2020-09-22,11:10:00,DRY,1.33,16.87,40.3,779.00,543.4
2020-09-22,11:15:00,DRY,1.50,17.00,40.5,778.50,555.8
2020-09-22,11:20:00,DRY,1.60,17.77,37.0,778.67,511.1
2020-09-22,11:25:00,DRY,2.60,17.90,36.5,778.00,437.5
2020-09-22,11:30:00,DRY,1.53,17.20,40.0,778.00,690.3
2020-09-22,11:35:00,DRY,2.35,17.35,39.0,778.00,1243.7
2020-09-22,11:40:00,DRY,2.50,18.27,39.3,778.00,979.2
2020-09-22,11:45:00,DRY,2.75,18.25,36.0,778.00,790.9
2020-09-22,11:50:00,DRY,2.23,18.23,37.3,778.00,909.2
2020-09-22,11:55:00,DRY,0.95,18.20,36.5,778.00,918.0
2020-09-22,12:00:00,DRY,2.10,17.70,36.0,778.00,767.5
2020-09-22,12:05:00,DRY,0.95,17.80,36.5,778.00,698.2
2020-09-22,12:10:00,DRY,1.60,17.80,36.3,778.00,756.8
2020-09-22,12:15:00,DRY,1.45,18.05,36.0,778.00,775.0
2020-09-22,12:20:00,DRY,0.77,18.30,35.3,778.00,817.3
2020-09-22,12:25:00,DRY,1.35,18.30,34.0,778.00,1285.3
2020-09-22,12:30:00,DRY,1.50,18.53,34.0,778.00,807.2
2020-09-22,12:35:00,DRY,0.75,18.90,37.5,778.00,589.5
2020-09-22,12:40:00,DRY,1.93,18.67,35.7,778.00,636.0
2020-09-22,12:45:00,DRY,1.10,17.90,37.0,778.00,485.3
2020-09-22,12:50:00,DRY,1.33,17.90,37.3,778.00,558.4
2020-09-22,12:55:00,DRY,1.05,18.40,37.0,778.00,713.0
2020-09-22,13:00:00,DRY,1.03,18.37,36.0,778.00,858.3
2020-09-22,13:05:00,DRY,1.30,18.35,37.5,778.00,918.4
2020-09-22,13:10:00,DRY,1.23,18.60,35.3,778.00,690.9
2020-09-22,13:15:00,DRY,1.20,18.70,34.5,777.50,953.7
2020-09-22,13:20:00,DRY,1.80,18.73,34.3,778.00,927.3
2020-09-22,13:25:00,DRY,1.50,18.55,34.0,778.00,582.6
2020-09-22,13:30:00,DRY,2.00,18.30,35.0,777.00,596.2
2020-09-22,13:35:00,DRY,0.70,19.10,34.0,777.00,647.3
2020-09-22,13:40:00,DRY,1.43,18.30,37.3,777.67,718.7
2020-09-22,13:45:00,DRY,3.30,18.05,44.0,777.50,682.0
2020-09-22,13:50:00,DRY,1.70,18.43,41.0,777.33,714.6
2020-09-22,13:55:00,DRY,2.15,18.40,38.5,777.50,764.5
2020-09-22,14:00:00,DRY,1.77,18.43,39.3,777.33,601.0
2020-09-22,14:05:00,DRY,1.20,18.05,40.5,777.00,662.1
2020-09-22,14:10:00,DRY,1.90,17.60,39.7,777.00,545.7
2020-09-22,14:15:00,DRY,2.65,17.10,41.0,777.00,557.1
2020-09-22,14:20:00,DRY,0.73,17.40,40.0,777.00,579.0
2020-09-22,14:25:00,DRY,0.60,17.65,39.0,777.00,492.4
2020-09-22,14:30:00,DRY,0.63,18.03,39.3,777.00,468.0
2020-09-22,14:35:00,DRY,1.20,17.70,39.0,777.00,447.9
2020-09-22,14:40:00,DRY,2.77,17.60,45.7,777.00,493.0
2020-09-22,14:45:00,DRY,1.15,16.90,52.5,777.00,513.8
2020-09-22,14:50:00,DRY,1.13,16.27,55.3,777.00,588.7
2020-09-22,14:55:00,DRY,1.40,16.10,57.0,777.00,574.6
2020-09-22,15:00:00,DRY,1.87,16.23,56.3,777.00,702.4
2020-09-22,15:05:00,DRY,2.15,16.00,57.0,777.00,683.5
2020-09-22,15:10:00,DRY,2.30,15.57,57.0,777.00,426.0
2020-09-22,15:15:00,DRY,2.60,15.45,57.5,777.00,369.9
2020-09-22,15:20:00,DRY,2.20,15.30,56.3,777.00,385.0
2020-09-22,15:25:00,DRY,1.75,14.95,58.0,777.00,478.9
2020-09-22,15:30:00,DRY,1.60,14.97,58.7,777.00,371.2
2020-09-22,15:35:00,DRY,1.75,15.30,56.5,777.00,321.9
2020-09-22,15:40:00,DRY,1.87,15.33,55.7,777.00,309.8
2020-09-22,15:45:00,DRY,2.35,14.95,55.5,777.00,274.8
2020-09-22,15:50:00,DRY,1.67,14.80,56.0,777.00,259.7
2020-09-22,15:55:00,DRY,1.75,14.65,56.0,777.00,259.4
2020-09-22,16:00:00,DRY,2.03,14.63,56.3,777.00,287.3
2020-09-22,16:05:00,DRY,1.50,14.65,56.0,777.00,281.4
2020-09-22,16:10:00,DRY,2.47,15.00,54.7,777.00,283.9
2020-09-22,16:15:00,DRY,1.75,15.30,53.0,777.00,304.6
2020-09-22,16:20:00,DRY,0.93,15.67,51.0,777.00,353.2
2020-09-22,16:25:00,DRY,1.20,15.65,51.5,777.00,412.5
2020-09-22,16:30:00,DRY,0.47,15.97,51.0,777.00,362.2
2020-09-22,16:35:00,DRY,0.95,16.35,49.0,777.00,262.0
2020-09-22,16:40:00,DRY,1.83,15.97,50.7,777.00,241.2
2020-09-22,16:45:00,DRY,0.80,16.05,49.5,777.00,258.4
2020-09-22,16:50:00,DRY,1.43,15.60,49.7,777.00,251.7
2020-09-22,16:55:00,DRY,1.10,15.60,51.5,777.00,213.6
2020-09-22,17:00:00,DRY,0.90,15.27,53.3,777.00,181.5
2020-09-22,17:05:00,DRY,1.15,15.20,54.5,777.00,212.4
2020-09-22,17:10:00,DRY,0.93,14.90,55.3,777.00,195.0
2020-09-22,17:15:00,DRY,1.15,14.90,55.5,777.00,168.2
2020-09-22,17:20:00,DRY,1.10,14.70,54.3,777.00,148.1
2020-09-22,17:25:00,DRY,1.15,14.25,54.0,777.00,141.5
2020-09-22,17:30:00,DRY,1.23,14.60,53.7,777.00,100.8
2020-09-22,17:35:00,DRY,1.40,14.90,52.0,776.50,68.8
2020-09-22,17:40:00,DRY,0.67,14.90,51.7,776.33,78.6
2020-09-22,17:45:00,DRY,0.35,14.90,51.5,776.00,90.0
2020-09-22,17:50:00,DRY,1.13,14.93,51.3,776.67,132.1
2020-09-22,17:55:00,DRY,0.80,14.95,46.5,776.00,123.7
2020-09-22,18:00:00,DRY,1.23,14.17,51.0,776.00,74.0
2020-09-22,18:05:00,DRY,0.65,13.65,50.5,776.00,59.5
2020-09-22,18:10:00,DRY,1.23,12.10,55.7,776.00,56.7
2020-09-22,18:15:00,DRY,2.45,11.60,55.5,776.00,54.6
2020-09-22,18:20:00,DRY,0.80,11.20,62.7,776.00,50.3
2020-09-22,18:25:00,DRY,1.45,12.20,60.5,776.00,32.2
2020-09-22,18:30:00,DRY,1.37,11.07,65.7,776.00,24.8
2020-09-22,18:35:00,DRY,1.40,12.85,58.5,776.00,24.9
2020-09-22,18:40:00,DRY,1.53,13.93,53.0,776.00,17.1
2020-09-22,18:45:00,DRY,1.55,14.30,47.0,776.00,8.1
2020-09-22,18:50:00,DRY,1.43,14.37,45.7,776.00,6.6
2020-09-22,18:55:00,DRY,1.20,14.70,42.5,776.00,5.9
2020-09-22,19:00:00,DRY,2.80,15.07,39.0,776.00,4.0
2020-09-22,19:05:00,DRY,3.85,15.20,38.0,776.00,2.5
2020-09-22,19:10:00,DRY,1.93,15.17,39.0,776.00,2.1
2020-09-22,19:15:00,DRY,0.85,15.00,40.0,776.00,2.0
2020-09-22,19:20:00,DRY,1.73,14.93,40.7,776.00,1.7
2020-09-22,19:25:00,DRY,1.50,14.80,41.5,776.00,1.2
2020-09-22,19:30:00,DRY,1.57,14.47,47.3,776.00,1.4
2020-09-22,19:35:00,DRY,1.05,14.05,49.0,776.00,1.9
2020-09-22,19:40:00,DRY,0.70,14.10,48.3,776.00,1.6
2020-09-22,19:45:00,DRY,1.45,14.15,50.0,776.00,0.8
2020-09-22,19:50:00,DRY,2.10,14.03,49.3,776.33,1.4
2020-09-22,19:55:00,DRY,1.90,13.90,51.0,776.00,2.0
2020-09-22,20:00:00,DRY,1.60,13.77,51.3,776.00,1.0
2020-09-22,20:05:00,DRY,1.45,13.85,49.5,776.00,1.5
2020-09-22,20:10:00,DRY,0.80,14.03,46.3,776.67,1.3
2020-09-22,20:15:00,DRY,0.75,14.10,46.0,777.00,1.1
2020-09-22,20:20:00,DRY,1.63,14.17,44.7,777.00,1.6
2020-09-22,20:25:00,DRY,1.25,14.15,45.0,777.00,1.4
2020-09-22,20:30:00,DRY,1.90,14.17,43.3,777.00,1.1
2020-09-22,20:35:00,DRY,1.55,14.20,43.5,777.00,1.4
2020-09-22,20:40:00,DRY,1.37,14.20,43.3,777.00,0.4
2020-09-22,20:45:00,DRY,1.05,14.25,43.0,777.00,0.7
2020-09-22,20:50:00,DRY,2.00,14.30,42.3,777.00,0.6
2020-09-22,20:55:00,DRY,2.90,14.25,42.0,777.00,0.7
2020-09-22,21:00:00,DRY,2.57,14.50,40.3,777.00,1.2
2020-09-22,21:05:00,DRY,3.90,15.10,38.0,777.00,1.2
2020-09-22,21:10:00,DRY,3.07,15.30,37.0,777.00,1.2
2020-09-22,21:15:00,DRY,2.95,15.35,37.0,777.00,1.6
2020-09-22,21:20:00,DRY,2.87,15.27,37.0,777.00,1.0
2020-09-22,21:25:00,DRY,3.30,15.40,37.0,777.00,1.2
2020-09-22,21:30:00,DRY,2.53,15.27,37.0,777.00,1.2
2020-09-22,21:35:00,DRY,3.70,15.20,37.5,777.00,1.1
2020-09-22,21:40:00,DRY,4.43,15.13,38.0,777.00,1.0
2020-09-22,21:45:00,DRY,4.15,15.15,38.0,777.00,1.4
2020-09-22,21:50:00,DRY,3.53,15.23,38.0,777.00,1.2
2020-09-22,21:55:00,DRY,2.25,15.25,38.0,777.00,0.9
2020-09-22,22:00:00,DRY,2.77,15.27,37.7,777.00,0.9
2020-09-22,22:05:00,DRY,4.10,14.95,38.5,777.00,1.2
2020-09-22,22:10:00,DRY,3.70,14.97,38.3,777.00,1.4
2020-09-22,22:15:00,DRY,4.30,15.20,37.0,777.00,1.1
2020-09-22,22:20:00,DRY,6.03,15.27,37.0,777.00,0.8
2020-09-22,22:25:00,DRY,4.90,15.30,36.0,777.00,1.2
2020-09-22,22:30:00,DRY,3.40,15.20,37.0,777.00,1.5
2020-09-22,22:35:00,DRY,4.35,15.20,37.0,777.00,1.1
2020-09-22,22:40:00,DRY,3.77,15.20,36.7,777.00,1.3
2020-09-22,22:45:00,DRY,5.20,15.20,37.0,777.00,1.1
2020-09-22,22:50:00,DRY,4.13,15.07,37.3,777.00,1.3
2020-09-22,22:55:00,DRY,4.30,14.75,39.0,777.00,1.1
2020-09-22,23:00:00,DRY,3.80,14.77,38.7,777.00,0.9
2020-09-22,23:05:00,DRY,3.80,14.95,38.0,777.00,1.8
2020-09-22,23:10:00,DRY,3.20,14.90,37.3,777.00,0.9
2020-09-22,23:15:00,DRY,3.50,14.95,37.0,777.00,1.0
2020-09-22,23:20:00,DRY,3.87,14.93,37.0,777.00,1.0
2020-09-22,23:25:00,DRY,4.05,14.95,37.0,777.00,1.7
2020-09-22,23:30:00,DRY,4.80,14.90,37.0,777.00,1.3
2020-09-22,23:35:00,DRY,4.80,14.85,37.5,777.00,1.1
2020-09-22,23:40:00,DRY,4.73,14.80,38.0,777.00,1.1
2020-09-22,23:45:00,DRY,4.20,14.80,37.5,777.00,1.2
2020-09-22,23:50:00,DRY,3.37,14.83,37.0,776.67,1.0
2020-09-22,23:55:00,DRY,1.60,14.80,36.5,776.00,1.4
2020-09-23,00:00:00,DRY,2.87,14.93,37.0,776.00,1.5
2020-09-23,00:05:00,DRY,3.20,14.95,36.5,776.00,1.2
2020-09-23,00:10:00,DRY,4.13,14.90,37.0,776.00,1.1
2020-09-23,00:15:00,DRY,3.10,14.85,39.5,776.00,1.1
2020-09-23,00:20:00,DRY,1.70,14.50,40.3,776.00,1.1
2020-09-23,00:25:00,DRY,1.35,14.45,40.5,777.00,0.4
2020-09-23,00:30:00,DRY,2.80,14.50,39.7,776.00,1.2
2020-09-23,00:35:00,DRY,3.80,14.35,40.5,776.00,1.0
2020-09-23,00:40:00,DRY,3.07,14.47,39.3,776.00,0.9
2020-09-23,00:45:00,DRY,3.60,14.50,39.0,776.00,0.9
2020-09-23,00:50:00,DRY,1.83,14.47,39.0,776.00,1.3
2020-09-23,00:55:00,DRY,2.30,14.40,39.0,776.00,1.4
2020-09-23,01:00:00,DRY,2.47,14.33,40.0,776.00,0.8
2020-09-23,01:05:00,DRY,2.60,14.40,39.0,776.00,0.9
2020-09-23,01:10:00,DRY,1.93,14.47,39.0,776.00,1.3
2020-09-23,01:15:00,DRY,2.70,14.35,40.0,776.00,1.4
2020-09-23,01:20:00,DRY,2.00,14.10,40.7,776.00,1.7
2020-09-23,01:25:00,DRY,2.00,13.95,42.0,776.00,1.8
2020-09-23,01:30:00,DRY,1.87,14.07,41.0,776.00,1.6
2020-09-23,01:35:00,DRY,2.25,14.10,41.0,776.00,2.1
2020-09-23,01:40:00,DRY,2.60,14.27,40.7,776.00,0.7
2020-09-23,01:45:00,DRY,0.90,14.25,40.0,776.00,1.6
2020-09-23,01:50:00,DRY,3.03,14.27,41.0,776.00,1.0
2020-09-23,01:55:00,DRY,3.35,14.10,41.5,776.00,1.2
2020-09-23,02:00:00,DRY,3.63,13.73,44.0,776.00,1.0
2020-09-23,02:05:00,DRY,3.35,13.45,45.0,776.00,0.6
2020-09-23,02:10:00,DRY,2.20,13.20,46.7,776.00,0.7
2020-09-23,02:15:00,DRY,1.85,12.95,48.0,776.00,0.8
2020-09-23,02:20:00,DRY,2.30,12.73,49.3,776.00,1.2
2020-09-23,02:25:00,DRY,2.20,12.60,51.5,776.00,0.6
2020-09-23,02:30:00,DRY,2.00,12.60,51.5,776.00,1.1
2020-09-23,02:35:00,DRY,0.60,12.60,51.0,776.00,1.1
2020-09-23,02:40:00,DRY,0.97,12.70,50.7,776.00,2.3
2020-09-23,02:45:00,DRY,0.85,12.70,50.0,776.00,0.2
2020-09-23,02:50:00,DRY,1.97,12.80,49.3,776.00,1.2
2020-09-23,02:55:00,DRY,2.90,12.80,49.0,776.00,0.8
2020-09-23,03:00:00,DRY,3.23,12.70,50.3,776.00,0.9
2020-09-23,03:05:00,DRY,3.35,12.55,52.0,776.00,1.5
2020-09-23,03:10:00,DRY,3.37,12.33,54.3,775.00,1.5
2020-09-23,03:15:00,DRY,3.30,12.20,57.0,775.00,0.8
2020-09-23,03:20:00,DRY,3.60,12.10,58.3,775.00,1.2
2020-09-23,03:25:00,DRY,3.00,12.00,59.0,775.00,0.9
2020-09-23,03:30:00,DRY,2.57,12.00,59.0,775.00,1.4
2020-09-23,03:35:00,DRY,3.25,11.90,59.5,775.00,0.8
2020-09-23,03:40:00,DRY,2.37,11.90,60.0,775.00,2.0
2020-09-23,03:45:00,DRY,1.75,11.85,60.5,775.00,1.2
2020-09-23,03:50:00,DRY,1.83,11.83,60.7,775.00,1.0
2020-09-23,03:55:00,DRY,2.25,11.80,62.0,775.00,0.8
2020-09-23,04:00:00,DRY,3.10,11.77,63.0,775.00,0.9
2020-09-23,04:05:00,DRY,3.35,11.75,63.0,775.00,1.1
2020-09-23,04:10:00,DRY,2.67,11.80,63.0,775.00,1.3
2020-09-23,04:15:00,DRY,4.15,11.75,63.0,775.00,1.1
2020-09-23,04:20:00,DRY,2.10,11.60,64.0,775.00,1.9
2020-09-23,04:25:00,DRY,3.85,11.60,65.0,775.00,1.1
2020-09-23,04:30:00,DRY,3.93,11.53,64.7,775.00,1.1
2020-09-23,04:35:00,DRY,4.35,11.50,65.0,775.00,1.0
2020-09-23,04:40:00,DRY,4.27,11.50,64.7,775.00,0.7
2020-09-23,04:45:00,DRY,2.75,11.60,64.0,775.00,1.8
2020-09-23,04:50:00,DRY,4.63,11.53,64.7,775.00,1.0
2020-09-23,04:55:00,DRY,2.40,11.45,65.0,775.00,1.1
2020-09-23,05:00:00,DRY,3.37,11.43,65.0,775.00,1.0
2020-09-23,05:05:00,DRY,3.65,11.40,65.0,775.00,1.1
2020-09-23,05:10:00,DRY,2.83,11.37,65.0,775.00,1.2
2020-09-23,05:15:00,DRY,2.95,11.35,65.0,775.00,1.2
2020-09-23,05:20:00,DRY,2.37,11.33,65.0,775.00,1.7
2020-09-23,05:25:00,DRY,1.95,11.30,65.5,775.00,1.9
2020-09-23,05:30:00,DRY,3.13,11.20,66.3,775.00,1.5
2020-09-23,05:35:00,DRY,2.95,11.30,65.0,775.00,1.1
2020-09-23,05:40:00,DRY,2.43,11.33,64.7,775.00,0.8
2020-09-23,05:45:00,DRY,2.90,11.50,64.0,775.00,1.5
2020-09-23,05:50:00,DRY,2.20,11.40,64.3,775.00,0.6
2020-09-23,05:55:00,DRY,1.30,11.35,64.0,775.00,1.4
2020-09-23,06:00:00,DRY,2.57,11.47,64.0,775.00,0.9
2020-09-23,06:05:00,DRY,1.15,11.50,63.0,775.00,1.6
2020-09-23,06:10:00,DRY,1.13,11.47,63.0,775.00,1.2
2020-09-23,06:15:00,DRY,0.60,11.40,63.0,775.00,1.7
2020-09-23,06:20:00,DRY,1.20,11.47,63.0,775.00,1.2
2020-09-23,06:25:00,DRY,1.50,11.50,62.5,775.00,1.2
2020-09-23,06:30:00,DRY,1.57,11.70,61.0,775.00,1.1
2020-09-23,06:35:00,DRY,0.95,11.90,59.5,775.00,1.1
2020-09-23,06:40:00,DRY,1.50,11.90,60.3,775.00,1.7
2020-09-23,06:45:00,DRY,0.70,11.75,61.5,775.00,1.6
2020-09-23,06:50:00,DRY,1.53,12.37,55.3,774.67,1.8
2020-09-23,06:55:00,DRY,0.45,12.30,59.0,775.00,2.0
2020-09-23,07:00:00,DRY,1.60,11.67,62.3,775.00,3.8
2020-09-23,07:05:00,DRY,2.15,11.80,60.0,775.00,4.9
2020-09-23,07:10:00,DRY,1.73,11.47,64.3,775.00,7.1
2020-09-23,07:15:00,DRY,1.45,10.90,67.5,774.50,11.5
2020-09-23,07:20:00,DRY,2.67,10.73,68.0,775.00,20.8
2020-09-23,07:25:00,DRY,1.60,10.85,67.5,775.00,32.2
2020-09-23,07:30:00,DRY,1.93,11.07,66.7,775.00,41.2
2020-09-23,07:35:00,DRY,1.95,11.40,63.5,775.00,48.8
2020-09-23,07:40:00,DRY,2.50,11.97,58.7,775.00,58.8
2020-09-23,07:45:00,DRY,1.10,12.05,59.5,775.00,66.5
2020-09-23,07:50:00,DRY,0.73,11.77,63.0,775.00,80.4
2020-09-23,07:55:00,DRY,0.70,11.60,64.0,775.00,102.9
2020-09-23,08:00:00,DRY,1.70,11.63,64.0,775.00,113.9
2020-09-23,08:05:00,DRY,1.45,11.65,63.5,775.00,121.3
2020-09-23,08:10:00,DRY,0.83,11.43,65.7,775.00,125.3
2020-09-23,08:15:00,DRY,1.20,11.25,66.5,775.00,137.1
2020-09-23,08:20:00,DRY,1.67,11.10,68.0,775.00,158.7
2020-09-23,08:25:00,DRY,2.25,11.15,67.5,775.00,187.6
2020-09-23,08:30:00,DRY,3.33,11.33,64.7,775.00,204.3
2020-09-23,08:35:00,DRY,2.00,11.75,63.5,775.00,235.4
2020-09-23,08:40:00,DRY,2.90,11.60,64.7,775.00,215.2
2020-09-23,08:45:00,DRY,0.95,11.55,66.0,775.00,216.2
2020-09-23,08:50:00,DRY,1.80,12.20,60.3,775.00,220.8
2020-09-23,08:55:00,DRY,2.05,12.45,59.0,775.00,310.4
2020-09-23,09:00:00,DRY,2.20,12.70,57.7,775.00,245.8
2020-09-23,09:05:00,DRY,1.50,12.65,59.5,775.00,209.4
2020-09-23,09:10:00,DRY,2.40,12.43,60.3,775.00,216.3
2020-09-23,09:15:00,DRY,0.70,12.25,63.5,775.00,263.1
2020-09-23,09:20:00,DRY,0.53,12.17,64.3,775.00,257.5
2020-09-23,09:25:00,DRY,1.05,12.10,64.5,775.00,238.8
2020-09-23,09:30:00,DRY,0.87,11.80,65.7,775.00,264.4
2020-09-23,09:35:00,DRY,0.90,11.85,66.0,775.00,291.6
2020-09-23,09:40:00,DRY,0.97,11.83,65.7,775.00,339.0
2020-09-23,09:45:00,DRY,1.40,11.75,66.0,775.00,377.0
2020-09-23,09:50:00,DRY,1.47,11.97,65.3,775.00,447.1
2020-09-23,09:55:00,DRY,1.60,12.10,66.0,775.00,402.6
2020-09-23,10:00:00,DRY,2.53,11.93,66.0,775.00,549.8
2020-09-23,10:05:00,DRY,2.10,11.55,68.5,775.00,338.0
2020-09-23,10:10:00,DRY,2.83,11.60,68.0,775.00,571.2
2020-09-23,10:15:00,DRY,1.85,11.35,69.5,775.00,623.4
2020-09-23,10:20:00,DRY,2.27,11.63,69.0,775.00,670.5
2020-09-23,10:25:00,DRY,1.90,11.75,71.0,775.00,712.0
2020-09-23,10:30:00,DRY,2.57,11.90,71.7,775.00,685.2
2020-09-23,10:35:00,DRY,2.15,12.25,71.0,775.00,738.4
2020-09-23,10:40:00,DRY,2.23,12.03,74.0,775.00,685.6
2020-09-23,10:45:00,DRY,1.65,11.60,77.0,775.00,694.2
2020-09-23,10:50:00,DRY,2.33,11.97,76.0,775.00,586.3
2020-09-23,10:55:00,DRY,1.60,12.00,74.0,775.00,411.0
2020-09-23,11:00:00,DRY,1.90,12.23,74.0,775.00,376.7
2020-09-23,11:05:00,DRY,1.65,11.65,80.5,775.00,341.2
2020-09-23,11:10:00,DRY,1.43,11.50,81.3,775.00,348.9
2020-09-23,11:15:00,DRY,1.50,10.95,87.0,775.00,247.8
2020-09-23,11:20:00,DRY,2.00,10.87,85.7,775.00,261.9
2020-09-23,11:25:00,DRY,4.20,10.60,87.0,775.00,258.1
2020-09-23,11:30:00,DRY,2.63,10.50,87.3,775.00,246.4
2020-09-23,11:35:00,DRY,2.35,10.35,88.5,775.00,328.1
2020-09-23,11:40:00,DRY,1.10,10.47,88.3,775.00,413.8
2020-09-23,11:45:00,DRY,1.75,10.60,87.5,775.00,407.9
2020-09-23,11:50:00,DRY,2.13,10.97,86.3,775.00,366.5
2020-09-23,11:55:00,DRY,1.45,10.60,89.5,774.00,314.5
2020-09-23,12:00:00,DRY,3.50,10.40,91.0,774.00,295.7
2020-09-23,12:05:00,DRY,1.70,10.10,91.5,774.00,309.0
2020-09-23,12:10:00,DRY,3.23,10.13,93.0,774.00,291.3
2020-09-23,12:15:00,DRY,3.15,9.80,94.5,774.00,253.1
2020-09-23,12:20:00,DRY,3.13,9.73,95.0,774.00,376.9
2020-09-23,12:25:00,DRY,3.75,10.20,95.5,774.00,790.0
2020-09-23,12:30:00,DRY,3.70,10.67,92.7,774.00,364.5
2020-09-23,12:35:00,DRY,1.70,10.40,98.0,774.00,263.6
2020-09-23,12:40:00,DRY,2.13,10.57,99.0,774.00,324.9
2020-09-23,12:45:00,DRY,0.90,10.45,99.5,774.00,374.1
2020-09-23,12:50:00,DRY,2.00,10.03,99.0,774.00,537.3
2020-09-23,12:55:00,DRY,3.30,10.15,98.5,774.00,417.4
2020-09-23,13:00:00,DRY,3.53,10.23,98.7,774.00,219.2
2020-09-23,13:05:00,DRY,2.00,10.30,99.0,774.00,142.2
2020-09-23,13:10:00,WET,3.83,10.03,99.3,774.00,202.2
2020-09-23,13:15:00,WET,3.60,10.00,99.5,774.00,361.3
2020-09-23,13:20:00,DRY,2.43,9.97,99.3,774.00,717.1
2020-09-23,13:25:00,DRY,3.60,10.00,99.0,774.00,688.8
2020-09-23,13:30:00,DRY,3.80,9.80,98.0,774.00,255.7
2020-09-23,13:35:00,DRY,3.60,9.80,100.0,774.00,156.8
2020-09-23,13:40:00,DRY,2.23,9.80,100.0,774.00,359.4
2020-09-23,13:45:00,DRY,4.50,9.85,98.5,774.00,344.9
2020-09-23,13:50:00,WET,3.03,10.13,99.0,773.67,296.8
2020-09-23,13:55:00,WET,3.30,9.95,99.5,773.50,243.3
2020-09-23,14:00:00,WET,3.17,9.80,100.0,773.67,272.8
2020-09-23,14:05:00,WET,2.20,9.95,100.0,774.00,374.5
2020-09-23,14:10:00,WET,4.40,9.87,100.0,773.33,342.7
2020-09-23,14:15:00,WET,4.95,9.50,99.5,773.00,296.5
2020-09-23,14:20:00,WET,5.27,9.63,100.0,773.00,516.1
2020-09-23,14:25:00,WET,3.75,9.15,99.0,773.00,323.7
2020-09-23,14:30:00,WET,6.87,9.27,98.7,773.00,969.9
2020-09-23,14:35:00,WET,5.20,9.15,97.0,773.00,895.2
2020-09-23,14:40:00,WET,4.27,9.23,96.3,773.00,754.7
2020-09-23,14:45:00,WET,7.20,9.45,96.5,773.00,767.7
2020-09-23,14:50:00,WET,5.37,9.53,96.7,773.00,654.8
2020-09-23,14:55:00,DRY,4.75,9.50,95.0,773.00,504.0
2020-09-23,15:00:00,DRY,5.07,9.90,90.7,773.00,722.2
2020-09-23,15:05:00,DRY,6.30,10.05,89.0,773.00,711.1
2020-09-23,15:10:00,DRY,4.83,10.30,82.0,773.00,801.3
2020-09-23,15:15:00,DRY,3.45,10.85,80.5,773.00,581.9
2020-09-23,15:20:00,DRY,2.60,10.73,80.3,773.00,608.5
2020-09-23,15:25:00,DRY,1.90,10.80,80.0,773.00,492.4
2020-09-23,15:30:00,DRY,4.60,10.47,81.7,773.00,548.4
2020-09-23,15:35:00,DRY,2.20,10.80,78.5,773.00,552.9
2020-09-23,15:40:00,DRY,3.87,11.17,75.3,773.00,658.4
2020-09-23,15:45:00,DRY,3.30,11.05,75.5,773.00,616.9
2020-09-23,15:50:00,DRY,4.33,11.50,74.0,773.00,807.5
2020-09-23,15:55:00,DRY,4.55,10.85,75.0,773.00,568.5
2020-09-23,16:00:00,DRY,2.10,11.37,74.3,773.00,603.7
2020-09-23,16:05:00,DRY,2.15,11.00,74.5,773.00,685.3
2020-09-23,16:10:00,DRY,3.33,11.30,74.0,773.00,358.8
2020-09-23,16:15:00,DRY,1.60,11.15,75.0,773.00,288.6
2020-09-23,16:20:00,DRY,2.37,11.07,77.0,773.00,325.5
2020-09-23,16:25:00,DRY,1.45,10.55,78.0,773.00,185.1
2020-09-23,16:30:00,DRY,6.37,9.93,82.3,773.00,172.5
2020-09-23,16:35:00,DRY,5.05,9.85,82.5,773.00,183.4
2020-09-23,16:40:00,WET,4.40,9.93,80.7,773.00,170.6
2020-09-23,16:45:00,WET,5.45,9.45,86.5,772.50,176.8
2020-09-23,16:50:00,WET,2.97,9.10,91.3,773.00,201.7
2020-09-23,16:55:00,DRY,4.20,8.90,94.5,773.00,263.7
2020-09-23,17:00:00,DRY,4.77,9.03,92.3,773.00,251.4
2020-09-23,17:05:00,DRY,3.20,8.90,95.0,773.00,201.8
2020-09-23,17:10:00,DRY,4.00,8.90,93.0,773.00,176.6
2020-09-23,17:15:00,DRY,4.50,9.05,88.0,773.00,168.3
2020-09-23,17:20:00,DRY,3.83,8.90,90.7,773.00,140.1
2020-09-23,17:25:00,DRY,3.95,8.85,92.5,773.00,136.6
2020-09-23,17:30:00,DRY,2.47,8.90,92.3,773.00,119.2
2020-09-23,17:35:00,DRY,3.25,8.95,93.0,773.00,125.3
2020-09-23,17:40:00,DRY,2.93,8.97,92.0,773.00,106.2
2020-09-23,17:45:00,DRY,4.15,9.05,91.0,773.00,74.0
2020-09-23,17:50:00,DRY,3.70,9.07,90.7,773.00,78.2
2020-09-23,17:55:00,DRY,4.65,9.20,88.0,773.00,78.0
2020-09-23,18:00:00,DRY,3.80,9.03,90.0,773.00,77.8
2020-09-23,18:05:00,DRY,2.80,9.00,91.5,773.00,50.7
2020-09-23,18:10:00,DRY,3.10,8.80,93.0,773.00,51.8
2020-09-23,18:15:00,DRY,4.40,8.65,95.0,773.00,51.8
2020-09-23,18:20:00,DRY,4.50,8.60,95.3,773.00,43.4
2020-09-23,18:25:00,DRY,2.95,8.35,98.0,772.00,44.5
2020-09-23,18:30:00,DRY,3.93,8.37,98.3,772.00,35.3
2020-09-23,18:35:00,DRY,6.70,8.35,99.0,772.00,41.0
2020-09-23,18:40:00,WET,4.17,8.37,99.3,772.00,61.2
2020-09-23,18:45:00,WET,5.85,8.45,100.0,772.00,212.4
2020-09-23,18:50:00,WET,5.73,8.50,100.0,772.00,116.7
2020-09-23,18:55:00,WET,2.85,8.45,100.0,772.00,52.4
2020-09-23,19:00:00,WET,5.60,8.57,98.3,772.00,20.9
2020-09-23,19:05:00,WET,6.00,8.75,97.0,772.00,8.6
2020-09-23,19:10:00,WET,5.87,8.50,97.3,772.00,4.2
2020-09-23,19:15:00,WET,3.95,8.75,94.5,772.00,2.4
2020-09-23,19:20:00,WET,7.67,8.80,93.7,772.00,1.9
2020-09-23,19:25:00,WET,5.05,8.85,93.5,772.00,1.6